When you browse on this site, cookies collect data to enhance your experience and personalize the content and advertising you see.
Visit our Privacy Policy to learn more. By continuing to use the site, you agree to this use of cookies and data.

Meteo pe oră la Dziankowo

Astăzi, 26 Septembrie, Sâmbătă

Timp Temperatura Precipitaţii Vânt Presiune Umiditate
00:00 +16°C° 0.2 mm 2 m/s 735 mmHg 96%
01:00 +16°C° 0 mm 2 m/s 735 mmHg 96%
02:00 +16°C° 0.2 mm 2 m/s 735 mmHg 95%
03:00 +17°C° 0.2 mm 2 m/s 734 mmHg 94%
04:00 +17°C° 0.2 mm 2 m/s 734 mmHg 93%
05:00 +17°C° 0.6 mm 3 m/s 734 mmHg 92%
06:00 +17°C° 0.6 mm 3 m/s 733 mmHg 91%
07:00 +17°C° 0 mm 4 m/s 733 mmHg 87%
08:00 +17°C° 0 mm 5 m/s 733 mmHg 83%
09:00 +17°C° 0 mm 6 m/s 733 mmHg 78%
10:00 +19°C° 0 mm 6 m/s 733 mmHg 74%
11:00 +19°C° 0.1 mm 6 m/s 733 mmHg 74%
12:00 +20°C° 0.1 mm 7 m/s 733 mmHg 74%
13:00 +20°C° 0.1 mm 7 m/s 732 mmHg 73%
14:00 +20°C° 0.2 mm 6 m/s 733 mmHg 74%
15:00 +20°C° 0.2 mm 6 m/s 734 mmHg 74%
16:00 +20°C° 0.2 mm 5 m/s 734 mmHg 74%
17:00 +18°C° 0 mm 4 m/s 735 mmHg 75%
18:00 +17°C° 0 mm 3 m/s 735 mmHg 75%
19:00 +16°C° 0 mm 3 m/s 736 mmHg 76%
20:00 +14°C° 0.1 mm 3 m/s 736 mmHg 79%
21:00 +14°C° 0.1 mm 3 m/s 737 mmHg 82%
22:00 +13°C° 0.1 mm 3 m/s 737 mmHg 85%
23:00 +12°C° 1.4 mm 3 m/s 737 mmHg 87%

Mâine, 27 Septembrie, Duminică

Timp Temperatura Precipitaţii Vânt Presiune Umiditate
00:00 +12°C° 1.4 mm 4 m/s 737 mmHg 89%
01:00 +11°C° 1.4 mm 4 m/s 737 mmHg 92%
02:00 +10°C° 1.2 mm 5 m/s 737 mmHg 92%
03:00 +10°C° 1.2 mm 5 m/s 737 mmHg 92%
04:00 +10°C° 1.2 mm 6 m/s 737 mmHg 93%
05:00 +9°C° 4.4 mm 6 m/s 737 mmHg 93%
06:00 +9°C° 4.4 mm 6 m/s 737 mmHg 93%
07:00 +9°C° 4.4 mm 7 m/s 737 mmHg 94%
08:00 +9°C° 1.9 mm 7 m/s 737 mmHg 94%
09:00 +9°C° 1.9 mm 6 m/s 737 mmHg 94%
10:00 +9°C° 1.9 mm 6 m/s 737 mmHg 94%
11:00 +9°C° 1.8 mm 7 m/s 737 mmHg 93%
12:00 +8°C° 1.8 mm 7 m/s 738 mmHg 92%
13:00 +8°C° 1.8 mm 7 m/s 738 mmHg 92%
14:00 +8°C° 0.2 mm 7 m/s 739 mmHg 90%
15:00 +8°C° 0.2 mm 7 m/s 739 mmHg 89%
16:00 +8°C° 0.2 mm 7 m/s 740 mmHg 88%
17:00 +8°C° 0.3 mm 6 m/s 740 mmHg 89%
18:00 +8°C° 0.3 mm 6 m/s 741 mmHg 90%
19:00 +8°C° 0.3 mm 5 m/s 741 mmHg 91%
20:00 +9°C° 0.3 mm 6 m/s 742 mmHg 90%
21:00 +9°C° 0.3 mm 6 m/s 743 mmHg 89%
22:00 +9°C° 0.3 mm 6 m/s 744 mmHg 87%
23:00 +9°C° 0.1 mm 6 m/s 744 mmHg 88%

Poimâine, 28 Septembrie, Luni

Timp Temperatura Precipitaţii Vânt Presiune Umiditate
00:00 +9°C° 0.1 mm 5 m/s 744 mmHg 88%
01:00 +10°C° 0.1 mm 4 m/s 744 mmHg 89%
02:00 +8°C° 0 mm 4 m/s 744 mmHg 88%
03:00 +8°C° 0 mm 4 m/s 745 mmHg 88%
04:00 +8°C° 0 mm 4 m/s 745 mmHg 88%
05:00 +8°C° 0 mm 4 m/s 746 mmHg 86%
06:00 +8°C° 0 mm 4 m/s 746 mmHg 84%
07:00 +8°C° 0 mm 4 m/s 746 mmHg 83%
08:00 +11°C° 0 mm 4 m/s 746 mmHg 76%
09:00 +13°C° 0 mm 5 m/s 747 mmHg 69%
10:00 +14°C° 0 mm 5 m/s 747 mmHg 61%
11:00 +15°C° 0 mm 5 m/s 747 mmHg 56%
12:00 +18°C° 0 mm 4 m/s 747 mmHg 51%
13:00 +19°C° 0 mm 4 m/s 747 mmHg 46%
14:00 +18°C° 0 mm 4 m/s 747 mmHg 52%
15:00 +16°C° 0 mm 3 m/s 747 mmHg 57%
16:00 +14°C° 0 mm 3 m/s 747 mmHg 63%
17:00 +15°C° 0 mm 2 m/s 747 mmHg 64%
18:00 +15°C° 0 mm 2 m/s 747 mmHg 65%
19:00 +14°C° 0 mm 2 m/s 747 mmHg 66%
20:00 +14°C° 0 mm 2 m/s 747 mmHg 69%
21:00 +14°C° 0 mm 2 m/s 747 mmHg 73%
22:00 +14°C° 0 mm 2 m/s 747 mmHg 76%
23:00 +14°C° 0 mm 2 m/s 747 mmHg 78%

29 Septembrie, Marţi

Timp Temperatura Precipitaţii Vânt Presiune Umiditate
00:00 +13°C° 0 mm 1 m/s 747 mmHg 81%
01:00 +13°C° 0 mm 1 m/s 747 mmHg 83%
02:00 +13°C° 0 mm 1 m/s 747 mmHg 85%
03:00 +12°C° 0 mm 1 m/s 747 mmHg 87%
04:00 +12°C° 0 mm 1 m/s 747 mmHg 88%
05:00 +12°C° 0 mm 1 m/s 747 mmHg 87%
06:00 +13°C° 0 mm 1 m/s 747 mmHg 87%
07:00 +12°C° 0 mm 0 m/s 747 mmHg 86%
08:00 +14°C° 0 mm 1 m/s 747 mmHg 82%
09:00 +15°C° 0 mm 1 m/s 748 mmHg 79%
10:00 +15°C° 0 mm 1 m/s 748 mmHg 76%
11:00 +16°C° 0 mm 1 m/s 748 mmHg 74%
12:00 +18°C° 0 mm 1 m/s 748 mmHg 71%
13:00 +18°C° 0 mm 1 m/s 748 mmHg 69%
14:00 +18°C° 0.1 mm 1 m/s 748 mmHg 71%
15:00 +18°C° 0.1 mm 1 m/s 748 mmHg 73%
16:00 +18°C° 0.1 mm 1 m/s 748 mmHg 75%
17:00 +16°C° 0.6 mm 1 m/s 748 mmHg 80%
18:00 +15°C° 0.6 mm 1 m/s 748 mmHg 85%
19:00 +15°C° 0.6 mm 1 m/s 748 mmHg 91%
20:00 +14°C° 0.6 mm 1 m/s 748 mmHg 92%
21:00 +14°C° 0.6 mm 2 m/s 748 mmHg 92%
22:00 +14°C° 0.6 mm 2 m/s 748 mmHg 93%
23:00 +14°C° 0.1 mm 2 m/s 748 mmHg 93%

30 Septembrie, Miercuri

Timp Temperatura Precipitaţii Vânt Presiune Umiditate
00:00 +14°C° 0.1 mm 2 m/s 748 mmHg 93%
01:00 +14°C° 0.1 mm 2 m/s 748 mmHg 92%
02:00 +14°C° 0 mm 2 m/s 748 mmHg 92%
03:00 +14°C° 0 mm 2 m/s 748 mmHg 92%
04:00 +13°C° 0 mm 3 m/s 748 mmHg 91%
05:00 +13°C° 0 mm 3 m/s 748 mmHg 91%
06:00 +13°C° 0 mm 3 m/s 748 mmHg 90%
07:00 +13°C° 0 mm 3 m/s 748 mmHg 89%
08:00 +13°C° 0 mm 3 m/s 748 mmHg 87%
09:00 +14°C° 0 mm 3 m/s 748 mmHg 84%
10:00 +14°C° 0 mm 3 m/s 748 mmHg 81%
11:00 +16°C° 0 mm 3 m/s 747 mmHg 79%
12:00 +16°C° 0 mm 3 m/s 747 mmHg 77%
13:00 +17°C° 0 mm 3 m/s 747 mmHg 75%
14:00 +17°C° 0 mm 3 m/s 746 mmHg 75%
15:00 +17°C° 0 mm 3 m/s 746 mmHg 76%
16:00 +17°C° 0 mm 3 m/s 746 mmHg 76%
17:00 +16°C° 0 mm 3 m/s 746 mmHg 79%
18:00 +14°C° 0 mm 3 m/s 746 mmHg 82%
19:00 +14°C° 0 mm 3 m/s 746 mmHg 85%
20:00 +14°C° 0 mm 3 m/s 746 mmHg 87%
21:00 +13°C° 0 mm 3 m/s 745 mmHg 89%
22:00 +14°C° 0 mm 2 m/s 745 mmHg 90%
23:00 +14°C° 0.1 mm 2 m/s 745 mmHg 91%

1 Octombrie, Joi

Timp Temperatura Precipitaţii Vânt Presiune Umiditate
00:00 +14°C° 0.1 mm 2 m/s 744 mmHg 92%
01:00 +14°C° 0.1 mm 2 m/s 744 mmHg 93%
02:00 +14°C° 0.2 mm 2 m/s 744 mmHg 94%
03:00 +14°C° 0.2 mm 2 m/s 743 mmHg 94%
04:00 +13°C° 0.2 mm 2 m/s 743 mmHg 94%
05:00 +13°C° 0.5 mm 2 m/s 743 mmHg 94%
06:00 +13°C° 0.5 mm 1 m/s 742 mmHg 95%
07:00 +13°C° 0.5 mm 1 m/s 742 mmHg 95%
08:00 +13°C° 0.6 mm 1 m/s 742 mmHg 95%
09:00 +13°C° 0.6 mm 1 m/s 742 mmHg 94%
10:00 +13°C° 0.6 mm 1 m/s 741 mmHg 94%
11:00 +13°C° 1.1 mm 1 m/s 741 mmHg 94%
12:00 +12°C° 1.1 mm 0 m/s 741 mmHg 95%
13:00 +12°C° 1.1 mm 0 m/s 740 mmHg 95%
14:00 +12°C° 1.5 mm 0 m/s 740 mmHg 96%
15:00 +13°C° 1.5 mm 1 m/s 740 mmHg 96%
16:00 +13°C° 1.5 mm 1 m/s 740 mmHg 96%
17:00 +13°C° 0.9 mm 1 m/s 740 mmHg 97%
18:00 +13°C° 0.9 mm 1 m/s 740 mmHg 97%
19:00 +13°C° 0.9 mm 2 m/s 739 mmHg 97%
20:00 +13°C° 0.7 mm 2 m/s 739 mmHg 97%
21:00 +13°C° 0.7 mm 2 m/s 739 mmHg 96%
22:00 +13°C° 0.7 mm 2 m/s 739 mmHg 96%
23:00 +13°C° 0.1 mm 2 m/s 739 mmHg 95%
Arată mai mult